User: anonymous   Login
Location: Pacheco
(37.9835°N, 122.0752°W)
Time: 21:36:50
(UTC+00:00)
Language:

FENGYUN 1C DEB - Orbit

View from above orbital plane
View from above orbital plane
View from above satellite
View from above satellite

Ground track
Ground track

The orbit data is extracted from the following two-line orbital elements,

1 30737U 99025ASX 24262.45666453  .00001889  00000-0  95490-3 0  9996
2 30737  98.5413 255.0205 0023827 355.1542 170.1042 14.17172331906525
Epoch (UTC): 18 September 2024 10:57:35
Eccentricity: 0.0023827
inclination: 98.5413°
perigee height: 818 km
apogee height: 852 km
right ascension of ascending node: 255.0205°
argument of perigee: 355.1542°
revolutions per day: 14.17172331
mean anomaly at epoch: 170.1042°
orbit number at epoch: 90652

The dashed part of the orbit path shows where the satellite is in the earth's shadow,  

DLR